Location: Unnamed
(47.9062°N, 20.3783°E)
Time: 16:32:35
(UTC+02:00)

ISS - Visible Passes

Search period start: 09 September 2024 00:00
Search period end: 19 September 2024 00:00
Orbit: 415 x 425 km, 51.6° (Epoch: 09 September)

Date Brightness Start Highest point End Pass type
(mag) Time Alt. Az. Time Alt. Az. Time Alt. Az.
10 Sep -1.6 20:38:12 10° SSW 20:39:05 15° S 20:39:05 15° S visible
11 Sep -2.0 19:51:29 10° S 19:53:36 16° SE 19:54:25 15° ESE visible
11 Sep -1.3 21:26:35 10° WSW 21:27:26 16° WSW 21:27:26 16° WSW visible
12 Sep -3.7 20:39:02 10° SW 20:42:19 53° SSE 20:42:19 53° SSE visible
13 Sep -3.1 19:51:28 10° SSW 19:54:34 35° SE 19:56:50 16° E visible
13 Sep -1.9 21:27:55 10° W 21:29:47 29° W 21:29:47 29° W visible
14 Sep -3.7 20:39:53 10° WSW 20:43:14 77° NNW 20:43:58 51° NE visible
15 Sep -3.8 19:51:47 10° WSW 19:55:07 77° SSE 19:57:53 14° ENE visible
15 Sep -1.8 21:28:49 10° W 21:30:49 29° WNW 21:30:49 29° WNW visible
16 Sep -3.0 20:40:25 10° W 20:43:42 50° NNW 20:44:28 39° NNE visible
17 Sep -3.3 19:51:54 10° W 19:55:13 61° NNW 19:57:57 14° ENE visible
17 Sep -1.5 21:29:04 10° WNW 21:30:51 26° NW 21:30:51 26° NW visible
18 Sep -2.9 20:40:25 10° WNW 20:43:38 42° N 20:44:07 39° NNE visible
